[[{"header":{"parameterUnit":"m.s-1","parameterCategory":2,"la1":30.2991,"la2":30.254,"lo1":-89.0895,"lo2":-89.0444,"dy":0.0017,"dx":0.0017,"nx":28,"ny":28,"refTime":"2025-06-09T03:00:00:Z","depth":"0","parameterNumber":2,"parameterNumberName":"U-component_of_CURRENTS"},"data":[0,0,0,0,0,0,0,0,0,0,0,0,0,0,0,0,0,0,0,0,0,0,0,0,0,0,0,0,0,0,0,0,0,0,0,0,0,0,0,0,0,0,0,0,0,0,0,0,0,0,0,0,0,0,0,0,0,0,0.1489,0.149,0,0.156,0.1561,0.1561,0.1557,0.1556,0.1555,0.1554,0.158,0.1581,0.1583,0,0,0,0,0,0,0,0,0,0,0,0,0,0.1403,0.1405,0.1489,0.149,0.1491,0.156,0.1561,0.1561,0.1557,0.1556,0.1555,0.1554,0.1579,0.1581,0.1583,0,0,0,0,0,0,0,0,0,0,0,0,0,0.1454,0.1405,0.1489,0.1497,0.1499,0.1559,0.1561,0.1562,0.1558,0.1556,0.1555,0.1553,0.1578,0.1581,0.1583,0.1628,0,0,0.159,0.1592,0,0,0,0,0,0,0,0,0.1451,0.1457,0.1495,0.1497,0.1499,0.1548,0.154,0.1582,0.1558,0.1535,0.1554,0.1552,0.1566,0.157,0.1586,0.1629,0.163,0.1591,0.1592,0.1593,0.1594,0,0,0,0,0,0,0,0.1447,0.1454,0.1517,0.1496,0.1498,0.1516,0.1521,0.1548,0.1557,0.1537,0.1537,0.1546,0.1567,0.1584,0.1587,0.1631,0.1591,0.1593,0.1594,0.1595,0.1811,0.1815,0,0,0,0,0,0,0.1438,0.1451,0.1514,0.1519,0.1471,0.1518,0.1524,0.1534,0.1558,0.156,0.1547,0.1545,0.1581,0.1584,0.1588,0.1715,0.1593,0.1595,0.1597,0.1807,0.1812,0.1817,0,0,0,0,0,0,0.1436,0.1443,0.1512,0.1486,0.1496,0.1521,0.1532,0.1536,0.1557,0.1566,0.1567,0.1565,0.158,0.1584,0.1624,0.1713,0.1596,0.1599,0.1802,0.1809,0.1814,0.1923,0,0,0,0,0,0,0.1434,0.1442,0.1453,0.1486,0.1497,0.1564,0.1534,0.1538,0.1565,0.1564,0.1582,0.1583,0.1579,0.1621,0.1627,0.1714,0.1601,0.1796,0.1805,0.1812,0.1914,0.1932,0.1948,0,0,0,0,0,0.143,0.1464,0.1453,0.1462,0.1509,0.1566,0.1575,0.1586,0.1567,0.1596,0.1601,0.1582,0.1678,0.1625,0.1631,0.1721,0.1793,0.1802,0.1812,0.1906,0.1929,0.1948,0,0,0,0,0,0,0.1444,0.1467,0.1457,0.1497,0.153,0.1566,0.1596,0.1596,0.1625,0.1619,0.1612,0.1615,0.1696,0.1693,0.1635,0.1814,0.1744,0.1755,0.1814,0.1835,0.1852,0.1872,0.1603,0,0,0,0,0,0.1448,0.147,0.1498,0.1532,0.1549,0.157,0.1594,0.1603,0.1629,0.1639,0.1656,0.1688,0.1745,0.1769,0.181,0.1888,0.1863,0.1962,0.1979,0.1993,0.2019,0.2054,0.2075,0.1849,0.1848,0.1848,0,0,0.1463,0.1478,0.1491,0.1535,0.1558,0.1628,0.1582,0.1629,0.1696,0.1639,0.1729,0.1741,0.1778,0.1875,0.1914,0.1878,0.204,0.2005,0.2016,0.2035,0.2066,0.2088,0.2107,0.1855,0.1854,0.1853,0,0,0.1531,0.1517,0.1572,0.1609,0.1651,0.1669,0.1685,0.1729,0.1753,0.1827,0.1823,0.1882,0.1951,0.201,0.2045,0.2185,0.2127,0.2205,0.231,0.2344,0.2361,0.2377,0.234,0.2351,0.2217,0.2217,0.2217,0,0.1549,0.1624,0.16,0.1677,0.1725,0.1695,0.1788,0.1819,0.1874,0.1908,0.1873,0.2013,0.2034,0.2173,0.2229,0.2227,0.2198,0.2219,0.2362,0.2377,0.2391,0.2349,0.2361,0.2223,0.2223,0.2222,0.2221,0,0.1675,0.1736,0.1776,0.1856,0.1899,0.197,0.2004,0.2044,0.2052,0.2083,0.2192,0.2218,0.2297,0.2335,0.2325,0.2465,0.2393,0.2369,0.2297,0.242,0.2368,0.2378,0.2232,0.223,0.2228,0.2227,0,0,0.1721,0.1842,0.1858,0.1923,0.2002,0.2049,0.2148,0.2235,0.2286,0.2338,0.243,0.2546,0.2521,0.2563,0.2564,0.2607,0.2671,0.2536,0.2535,0.2476,0.2687,0.2507,0.2498,0.2655,0.2659,0.2661,0.2596,0,0.1836,0.2007,0.2036,0.2193,0.2284,0.2288,0.2375,0.2433,0.246,0.2527,0.2567,0.2641,0.262,0.2642,0.2697,0.2672,0.2708,0.2688,0.2599,0.2596,0.2402,0.2509,0.2493,0.2424,0.2605,0.2606,0.2607,0,0.1962,0.206,0.2236,0.2357,0.2392,0.2465,0.256,0.2632,0.2698,0.2713,0.2782,0.2775,0.2867,0.281,0.2852,0.2827,0.2787,0.2757,0.2753,0.256,0.2436,0.2342,0.2433,0.2449,0.2621,0.262,0.2619,0,0.202,0.2195,0.2332,0.2384,0.2513,0.2571,0.2622,0.2691,0.2724,0.2813,0.2821,0.2918,0.2915,0.2938,0.2854,0.2861,0.2839,0.2834,0.264,0.2623,0.2584,0.2557,0.2667,0.2887,0.2887,0.2887,0.2888,0,0.2147,0.2253,0.236,0.244,0.2555,0.2622,0.2709,0.2765,0.2816,0.2846,0.2902,0.2912,0.2943,0.2909,0.2882,0.2752,0.2855,0.2677,0.2618,0.2615,0.2593,0.2579,0.2572,0.2885,0.2885,0.2886,0.2886,0,0.2208,0.2294,0.2428,0.2557,0.2588,0.2657,0.2718,0.2759,0.2812,0.2848,0.2868,0.2891,0.2836,0.2811,0.2789,0.2725,0.2585,0.2592,0.2537,0.2473,0.2304,0.2301,0.2082,0.2042,0.2403,0.2398,0.2394,0,0.2266,0.2345,0.2464,0.2501,0.2558,0.2642,0.2675,0.2748,0.2767,0.2809,0.2814,0.2776,0.2711,0.2577,0.2505,0.2408,0.2384,0.2299,0.2343,0.2308,0.2265,0.2097,0.2073,0.2329,0.2325,0.2321,0.2319,0,0.2354,0.2369,0.2464,0.251,0.2558,0.2592,0.2645,0.2647,0.2706,0.271,0.2659,0.2611,0.2499,0.2375,0.2231,0.2181,0.2213,0.222,0.2261,0.228,0.2038,0.1965,0.2304,0.2289,0.2292,0.2294,0.2296,0.2297,0.2371,0.242,0.2483,0.251,0.2533,0.2499,0.2469,0.2491,0.2468,0.2408,0.2462,0.2338,0.233,0.2127,0.2047,0.1973,0.1924,0.1982,0.1994,0.1835,0.177,0.1976,0.1835,0.1836,0.1836,0.1836,0.1836,0,0.2376,0.2422,0.2463,0.2465,0.2393,0.2427,0.2401,0.2315,0.2209,0.2213,0.2128,0.2079,0.1988,0.1968,0.1936,0.1846,0.1756,0.1801,0.1711,0.1716,0.2015,0.1995,0.179,0.179,0.179,0.179,0.179,0.179,0.2394,0.2432,0.2434,0.2311,0.2258,0.2123,0.2056,0.1954,0.1913,0.1782,0.1732,0.1732,0.1862,0.1921,0.188,0.1822,0.173,0.1541,0.1538,0.1943,0.1966,0.1989,0.1975,0.177,0.177,0.1216,0.1213,0.121]},{"header":{"parameterUnit":"m.s-1","parameterCategory":2,"la1":30.2991,"la2":30.254,"lo1":-89.0895,"lo2":-89.0444,"dy":0.0017,"dx":0.0017,"nx":28,"ny":28,"refTime":"2025-06-09T03:00:00:Z","depth":"0","parameterNumber":3,"parameterNumberName":"V-component_of_CURRENTS"},"data":[0,0,0,0,0,0,0,0,0,0,0,0,0,0,0,0,0,0,0,0,0,0,0,0,0,0,0,0,0,0,0,0,0,0,0,0,0,0,0,0,0,0,0,0,0,0,0,0,0,0,0,0,0,0,0,0,0,0,0.0199,0.0199,0,0.025,0.0251,0.0251,0.0267,0.0267,0.0267,0.0267,0.0345,0.0347,0.0349,0,0,0,0,0,0,0,0,0,0,0,0,0,0.011,0.0111,0.0199,0.0199,0.02,0.025,0.0251,0.0251,0.0267,0.0267,0.0267,0.0267,0.0344,0.0347,0.035,0,0,0,0,0,0,0,0,0,0,0,0,0,0.0153,0.0112,0.0199,0.0214,0.0216,0.025,0.0251,0.0251,0.0267,0.0267,0.0267,0.0266,0.0343,0.0347,0.035,0.0377,0,0,0.036,0.0362,0,0,0,0,0,0,0,0,0.0151,0.0156,0.0211,0.0213,0.0216,0.0252,0.0248,0.0295,0.0267,0.0248,0.0267,0.0266,0.0317,0.0323,0.0332,0.0381,0.0384,0.0361,0.0363,0.0364,0.0365,0,0,0,0,0,0,0,0.0148,0.0154,0.0219,0.0212,0.0215,0.0217,0.0223,0.0257,0.0284,0.0249,0.0251,0.0257,0.0318,0.0329,0.0334,0.0385,0.0361,0.0364,0.0366,0.0367,0.051,0.0511,0,0,0,0,0,0,0.0143,0.0152,0.0217,0.022,0.0182,0.0219,0.0226,0.024,0.0283,0.0289,0.0257,0.0258,0.0323,0.033,0.0337,0.0422,0.0364,0.0368,0.0369,0.0508,0.051,0.0512,0,0,0,0,0,0,0.0141,0.0149,0.0215,0.0187,0.0195,0.0221,0.0238,0.0242,0.0255,0.0289,0.0295,0.0266,0.0323,0.0332,0.0373,0.0423,0.0369,0.0372,0.0506,0.0509,0.0511,0.056,0,0,0,0,0,0,0.0138,0.0148,0.0156,0.0187,0.0197,0.0239,0.0238,0.0243,0.0259,0.026,0.0299,0.0305,0.0323,0.0368,0.0377,0.0427,0.0375,0.0504,0.0507,0.051,0.0556,0.0564,0.057,0,0,0,0,0,0.0135,0.0158,0.0156,0.0164,0.0208,0.024,0.0245,0.0261,0.026,0.0271,0.0296,0.0304,0.0395,0.0372,0.0382,0.0434,0.0502,0.0506,0.051,0.0553,0.0562,0.057,0,0,0,0,0,0,0.0127,0.0162,0.0161,0.0193,0.0212,0.0242,0.0258,0.0263,0.0291,0.0293,0.0319,0.0328,0.0388,0.0399,0.0372,0.0485,0.0454,0.046,0.0483,0.0492,0.0499,0.0523,0.0378,0,0,0,0,0,0.0127,0.0151,0.0177,0.0201,0.0212,0.0231,0.0245,0.0255,0.0283,0.0294,0.0319,0.0357,0.0413,0.0438,0.0476,0.0531,0.0511,0.0573,0.0581,0.0587,0.0613,0.0599,0.0607,0.0525,0.0525,0.0525,0,0,0.0129,0.0152,0.0164,0.02,0.0217,0.0238,0.024,0.0265,0.0295,0.03,0.0347,0.038,0.0431,0.0498,0.0527,0.0513,0.0596,0.0592,0.0596,0.062,0.0604,0.0611,0.0618,0.0528,0.0527,0.0527,0,0,0.0147,0.0166,0.0189,0.0204,0.0229,0.0247,0.0253,0.0281,0.0309,0.0349,0.0379,0.0442,0.049,0.056,0.0599,0.067,0.0631,0.0674,0.0736,0.0721,0.0728,0.0733,0.0696,0.0698,0.068,0.068,0.068,0,0.0143,0.0179,0.0199,0.0219,0.0243,0.0251,0.0279,0.0309,0.0347,0.0403,0.0367,0.0505,0.0534,0.067,0.0692,0.0692,0.0651,0.0697,0.0729,0.0734,0.0739,0.07,0.0701,0.0683,0.0683,0.0683,0.0682,0,0.018,0.0198,0.0215,0.0246,0.0274,0.0298,0.0339,0.038,0.0404,0.0447,0.0562,0.06,0.0694,0.0713,0.0723,0.0808,0.0755,0.0732,0.0702,0.075,0.0706,0.0706,0.0687,0.0686,0.0685,0.0685,0,0,0.0199,0.0232,0.0236,0.0264,0.0292,0.0332,0.0394,0.0485,0.0571,0.0595,0.0706,0.0798,0.0825,0.0872,0.09,0.0894,0.0881,0.0823,0.0821,0.0778,0.0812,0.0793,0.079,0.0836,0.0837,0.0838,0.0759,0,0.022,0.0262,0.0282,0.0337,0.0367,0.041,0.0484,0.057,0.0638,0.0739,0.0813,0.0908,0.0885,0.0933,0.0931,0.0901,0.0887,0.0903,0.0782,0.0779,0.0749,0.0793,0.0819,0.0753,0.076,0.076,0.076,0,0.0248,0.0282,0.0327,0.0416,0.0441,0.0482,0.0637,0.0703,0.0846,0.0901,0.1001,0.1036,0.1104,0.1036,0.1005,0.1,0.0921,0.0868,0.0863,0.0837,0.0763,0.0713,0.0753,0.0742,0.076,0.076,0.076,0,0.0266,0.0324,0.0371,0.0388,0.0479,0.055,0.0621,0.0765,0.0868,0.1003,0.1067,0.1144,0.1166,0.1097,0.1002,0.0987,0.0909,0.0876,0.0791,0.0786,0.0789,0.0784,0.0806,0.0839,0.0839,0.0839,0.084,0,0.0285,0.0331,0.0387,0.0414,0.0538,0.0587,0.0744,0.0837,0.0974,0.1107,0.1148,0.123,0.1166,0.1126,0.1025,0.0911,0.0924,0.0822,0.078,0.0804,0.0802,0.0777,0.0749,0.0836,0.0837,0.0838,0.0838,0,0.03,0.0315,0.0391,0.0491,0.0538,0.0635,0.0802,0.0928,0.1021,0.1179,0.1214,0.1275,0.1214,0.1136,0.1014,0.0939,0.0815,0.0783,0.0809,0.0774,0.0704,0.0678,0.0601,0.062,0.0695,0.0695,0.0694,0,0.0313,0.0338,0.0446,0.0519,0.057,0.0708,0.0823,0.0951,0.1071,0.1211,0.1286,0.1274,0.1296,0.1119,0.0975,0.0814,0.0772,0.0735,0.0744,0.0729,0.0668,0.0617,0.0637,0.0747,0.0746,0.0746,0.0746,0,0.0365,0.0388,0.0459,0.0584,0.07,0.0842,0.0993,0.1081,0.1228,0.1323,0.1413,0.1423,0.1279,0.1157,0.0947,0.083,0.0742,0.0728,0.0716,0.0732,0.0675,0.0663,0.0747,0.0745,0.0746,0.0746,0.0746,0.0746,0.0417,0.048,0.0559,0.0689,0.0816,0.0963,0.1072,0.1206,0.1353,0.1497,0.1486,0.1526,0.1377,0.1102,0.0932,0.0727,0.0704,0.069,0.066,0.061,0.0646,0.0725,0.0677,0.0676,0.0676,0.0676,0.0676,0,0.0496,0.0564,0.0675,0.0822,0.0953,0.1008,0.119,0.129,0.1428,0.1562,0.1621,0.1634,0.1389,0.1171,0.0882,0.0727,0.0657,0.0645,0.0609,0.0636,0.0716,0.0743,0.0704,0.0704,0.0704,0.0704,0.0704,0.0704,0.055,0.0656,0.0705,0.0916,0.1016,0.1182,0.1273,0.1404,0.153,0.1718,0.1823,0.1889,0.1832,0.1171,0.0822,0.0716,0.0646,0.0547,0.0543,0.0629,0.0632,0.0635,0.0658,0.0602,0.0601,0.0503,0.0502,0.0501]}],[{"header":{"parameterUnit":"m.s-1","parameterCategory":2,"la1":30.2991,"la2":30.254,"lo1":-89.0895,"lo2":-89.0444,"dy":0.0017,"dx":0.0017,"nx":28,"ny":28,"refTime":"2025-06-09T03:00:00:Z","depth":"2","parameterNumber":2,"parameterNumberName":"U-component_of_CURRENTS"},"data":[0,0,0,0,0,0,0,0,0,0,0,0,0,0,0,0,0,0,0,0,0,0,0,0,0,0,0,0,0,0,0,0,0,0,0,0,0,0,0,0,0,0,0,0,0,0,0,0,0,0,0,0,0,0,0,0,0,0,0.1399,0.14,0,0.1468,0.1469,0.147,0.1469,0.1468,0.1468,0.1467,0.149,0.1491,0.1492,0,0,0,0,0,0,0,0,0,0,0,0,0,0.1313,0.1314,0.1399,0.14,0.1401,0.1468,0.1469,0.147,0.1469,0.1468,0.1467,0.1466,0.1489,0.1491,0.1493,0,0,0,0,0,0,0,0,0,0,0,0,0,0.1363,0.1315,0.1399,0.1409,0.1411,0.1468,0.1469,0.147,0.147,0.1468,0.1467,0.1466,0.1489,0.1491,0.1493,0.1532,0,0,0.1499,0.15,0,0,0,0,0,0,0,0,0.136,0.1366,0.1407,0.1408,0.141,0.1459,0.1447,0.1489,0.147,0.1447,0.1467,0.1465,0.1477,0.148,0.1495,0.1533,0.1534,0.15,0.1501,0.1502,0.1502,0,0,0,0,0,0,0,0.1356,0.1363,0.1426,0.1408,0.141,0.1426,0.1431,0.1456,0.1467,0.1449,0.1449,0.1458,0.1477,0.1493,0.1496,0.1534,0.1499,0.1501,0.1503,0.1504,0.1709,0.1713,0,0,0,0,0,0,0.1348,0.136,0.1424,0.1428,0.1382,0.1429,0.1434,0.1444,0.1468,0.147,0.1459,0.1458,0.149,0.1493,0.1497,0.1623,0.1502,0.1504,0.1505,0.1705,0.171,0.1714,0,0,0,0,0,0,0.1346,0.1353,0.1421,0.1396,0.1405,0.1431,0.1443,0.1447,0.147,0.1476,0.1477,0.1479,0.149,0.1494,0.153,0.1621,0.1505,0.1507,0.17,0.1706,0.1712,0.1826,0,0,0,0,0,0,0.1343,0.1352,0.1364,0.1395,0.1407,0.1473,0.1444,0.1449,0.1477,0.1476,0.1494,0.1494,0.1489,0.1527,0.1532,0.1622,0.1508,0.1695,0.1703,0.171,0.1817,0.1835,0.1851,0,0,0,0,0,0.134,0.1373,0.1364,0.1372,0.1419,0.1475,0.1484,0.1496,0.148,0.1509,0.1511,0.1494,0.1582,0.1531,0.1536,0.1629,0.1691,0.17,0.171,0.1809,0.1832,0.1851,0,0,0,0,0,0,0.1354,0.1377,0.1368,0.1408,0.1441,0.1476,0.1506,0.1508,0.1535,0.1529,0.1521,0.1524,0.1602,0.1597,0.1541,0.1717,0.1646,0.1656,0.172,0.1741,0.1758,0.1782,0.151,0,0,0,0,0,0.1358,0.1381,0.1409,0.1442,0.1459,0.1481,0.1505,0.1514,0.1538,0.1549,0.1565,0.1595,0.1649,0.1672,0.171,0.1785,0.1759,0.186,0.1877,0.1891,0.1919,0.1948,0.1969,0.1745,0.1745,0.1745,0,0,0.1373,0.1388,0.1402,0.1445,0.1469,0.1538,0.1493,0.1541,0.1607,0.1548,0.1638,0.1647,0.1681,0.1775,0.1813,0.1778,0.1938,0.1903,0.1915,0.1936,0.196,0.1981,0.2,0.1752,0.175,0.1749,0,0,0.1439,0.1428,0.1481,0.1517,0.1559,0.1579,0.1596,0.164,0.1665,0.1738,0.1732,0.1788,0.1856,0.1911,0.1944,0.2081,0.2024,0.2103,0.2211,0.2238,0.2256,0.2271,0.2233,0.2244,0.2115,0.2115,0.2115,0,0.1458,0.153,0.1509,0.1582,0.1628,0.1606,0.1695,0.1729,0.1783,0.1816,0.1785,0.1921,0.1938,0.2074,0.213,0.2124,0.2094,0.2121,0.2257,0.2272,0.2286,0.2243,0.2254,0.2121,0.2121,0.212,0.2119,0,0.1579,0.1638,0.1677,0.1756,0.1798,0.1868,0.1904,0.195,0.1964,0.1994,0.2104,0.2127,0.2204,0.2241,0.2228,0.2364,0.2293,0.2265,0.2193,0.2314,0.2262,0.2271,0.2131,0.2129,0.2127,0.2125,0,0,0.1628,0.1741,0.1758,0.1822,0.1896,0.1946,0.2047,0.2136,0.2194,0.2249,0.234,0.2455,0.2431,0.2471,0.2469,0.251,0.257,0.2437,0.2435,0.2378,0.2577,0.2403,0.2394,0.2549,0.2553,0.2555,0.2487,0,0.1739,0.1905,0.1928,0.2083,0.2174,0.218,0.227,0.2332,0.2363,0.2433,0.2474,0.2546,0.253,0.2552,0.2605,0.2569,0.2605,0.2588,0.2488,0.2485,0.2298,0.2405,0.2242,0.2159,0.2495,0.2497,0.2498,0,0.1864,0.1959,0.213,0.2248,0.2282,0.2359,0.2463,0.2536,0.2604,0.2621,0.269,0.2681,0.2768,0.2715,0.275,0.2728,0.2685,0.2651,0.2646,0.2457,0.233,0.2103,0.2161,0.2512,0.251,0.2509,0.2509,0,0.1928,0.2097,0.2233,0.2283,0.2411,0.2473,0.2527,0.2597,0.263,0.272,0.2728,0.282,0.2814,0.2834,0.2747,0.2755,0.2725,0.2717,0.2528,0.2511,0.2344,0.2308,0.2766,0.2766,0.2767,0.2767,0.2767,0,0.2051,0.2159,0.2271,0.2349,0.2471,0.2533,0.2625,0.2684,0.2732,0.2757,0.281,0.2816,0.284,0.2801,0.2772,0.2643,0.274,0.2568,0.2505,0.2374,0.2343,0.2633,0.2619,0.2764,0.2765,0.2765,0.2766,0,0.2109,0.22,0.2334,0.2467,0.2504,0.2578,0.2636,0.2682,0.2734,0.2763,0.2781,0.2793,0.2731,0.2706,0.2672,0.2612,0.2548,0.2478,0.2281,0.2199,0.2315,0.2308,0.2303,0.2297,0.2292,0.2288,0.2284,0,0.2168,0.2249,0.237,0.2415,0.2474,0.2566,0.2603,0.2674,0.2691,0.2724,0.2723,0.2676,0.26,0.2459,0.2365,0.2263,0.2365,0.2039,0.2063,0.234,0.228,0.2281,0.2281,0.1874,0.1867,0.1862,0.1857,0,0.2235,0.2251,0.2335,0.2412,0.2472,0.2514,0.2571,0.2572,0.2625,0.2621,0.2555,0.2494,0.2358,0.2146,0.2,0.1931,0.2052,0.1919,0.2284,0.2003,0.1926,0.1869,0.1886,0.1808,0.1813,0.1817,0.1819,0.1821,0.2233,0.2276,0.2333,0.2399,0.2435,0.2418,0.2386,0.2399,0.2363,0.2269,0.2318,0.214,0.2087,0.1755,0.1639,0.1542,0.1702,0.1638,0.166,0.1686,0.1636,0.1553,0.1352,0.1355,0.1356,0.1358,0.136,0,0.2221,0.2261,0.2311,0.2341,0.228,0.2336,0.2316,0.22,0.2066,0.2031,0.1906,0.1641,0.1468,0.1422,0.1218,0.1165,0.1206,0.1092,0.1179,0.1226,0.1269,0.1204,0.0802,0.0801,0.0799,0.0798,0,0,0.223,0.2264,0.228,0.2173,0.2141,0.2006,0.1943,0.1785,0.17,0.1491,0.1381,0.1382,0.1409,0.1125,0.1048,0.091,0.1068,0.0846,0.1295,0.1449,0.149,0.1577,0.1527,0,0,0,0,0]},{"header":{"parameterUnit":"m.s-1","parameterCategory":2,"la1":30.2991,"la2":30.254,"lo1":-89.0895,"lo2":-89.0444,"dy":0.0017,"dx":0.0017,"nx":28,"ny":28,"refTime":"2025-06-09T03:00:00:Z","depth":"2","parameterNumber":3,"parameterNumberName":"V-component_of_CURRENTS"},"data":[0,0,0,0,0,0,0,0,0,0,0,0,0,0,0,0,0,0,0,0,0,0,0,0,0,0,0,0,0,0,0,0,0,0,0,0,0,0,0,0,0,0,0,0,0,0,0,0,0,0,0,0,0,0,0,0,0,0,0.0131,0.0132,0,0.0179,0.0179,0.018,0.0197,0.0197,0.0197,0.0197,0.027,0.0272,0.0274,0,0,0,0,0,0,0,0,0,0,0,0,0,0.0045,0.0047,0.0131,0.0132,0.0132,0.0179,0.0179,0.018,0.0197,0.0197,0.0197,0.0197,0.0269,0.0272,0.0274,0,0,0,0,0,0,0,0,0,0,0,0,0,0.0086,0.0047,0.0131,0.0147,0.0149,0.0179,0.0179,0.018,0.0197,0.0197,0.0197,0.0197,0.0268,0.0271,0.0274,0.0297,0,0,0.0284,0.0285,0,0,0,0,0,0,0,0,0.0084,0.0089,0.0144,0.0146,0.0148,0.0182,0.0176,0.0221,0.0197,0.0178,0.0197,0.0197,0.0244,0.0249,0.0257,0.03,0.0303,0.0284,0.0286,0.0287,0.0288,0,0,0,0,0,0,0,0.0081,0.0087,0.0149,0.0145,0.0147,0.0149,0.0154,0.0184,0.0211,0.018,0.0181,0.0188,0.0245,0.0254,0.0259,0.0304,0.0284,0.0287,0.0289,0.029,0.0426,0.0427,0,0,0,0,0,0,0.0077,0.0085,0.0148,0.0151,0.0116,0.015,0.0157,0.0171,0.021,0.0216,0.0188,0.0188,0.0249,0.0255,0.0261,0.0346,0.0287,0.029,0.0292,0.0424,0.0426,0.0428,0,0,0,0,0,0,0.0075,0.0083,0.0146,0.0119,0.0127,0.0152,0.0168,0.0172,0.0185,0.0216,0.0222,0.0197,0.0249,0.0257,0.0295,0.0346,0.0292,0.0294,0.0422,0.0425,0.0427,0.0478,0,0,0,0,0,0,0.0073,0.0082,0.009,0.0119,0.0128,0.0169,0.0168,0.0173,0.0189,0.0191,0.0227,0.0233,0.0249,0.0291,0.0298,0.035,0.0297,0.042,0.0423,0.0426,0.0475,0.0483,0.0489,0,0,0,0,0,0.007,0.0092,0.009,0.0098,0.0139,0.017,0.0175,0.0191,0.019,0.0201,0.0225,0.0232,0.0318,0.0294,0.0303,0.0356,0.0418,0.0422,0.0426,0.0471,0.0481,0.0489,0,0,0,0,0,0,0.0063,0.0096,0.0096,0.0127,0.0145,0.0173,0.0188,0.0193,0.022,0.0222,0.0245,0.0254,0.0312,0.0321,0.0294,0.0405,0.0374,0.038,0.0405,0.0414,0.0422,0.0447,0.0299,0,0,0,0,0,0.0063,0.0087,0.0111,0.0134,0.0144,0.0163,0.0176,0.0186,0.0212,0.0223,0.0247,0.0283,0.0336,0.0361,0.0396,0.0449,0.0428,0.0492,0.0499,0.0505,0.0533,0.0517,0.0525,0.0441,0.0441,0.0441,0,0,0.0065,0.0088,0.01,0.0133,0.0149,0.017,0.0171,0.0196,0.0226,0.0228,0.0275,0.0306,0.0354,0.0419,0.0447,0.0433,0.0515,0.051,0.0515,0.054,0.0522,0.053,0.0537,0.0444,0.0443,0.0443,0,0,0.0084,0.0102,0.0124,0.0138,0.0162,0.0179,0.0186,0.0213,0.0241,0.028,0.0308,0.037,0.0415,0.0483,0.052,0.059,0.0552,0.0595,0.066,0.0643,0.065,0.0655,0.062,0.0622,0.0602,0.0602,0.0602,0,0.0081,0.0115,0.0134,0.0153,0.0174,0.0183,0.021,0.024,0.0277,0.0334,0.0298,0.0433,0.046,0.0592,0.0615,0.0613,0.0573,0.0619,0.0651,0.0657,0.0661,0.0623,0.0625,0.0605,0.0604,0.0604,0.0604,0,0.0116,0.0132,0.0148,0.0178,0.0204,0.0227,0.0267,0.0311,0.0336,0.038,0.0494,0.0529,0.0622,0.064,0.0648,0.0731,0.068,0.0655,0.0623,0.0672,0.063,0.063,0.0609,0.0608,0.0607,0.0606,0,0,0.0138,0.0166,0.017,0.0196,0.0219,0.026,0.0322,0.0413,0.0502,0.0527,0.0638,0.0728,0.0756,0.08,0.0826,0.082,0.0807,0.0749,0.0746,0.0705,0.0739,0.0713,0.071,0.0761,0.0762,0.0763,0.0687,0,0.0157,0.0196,0.0212,0.0265,0.0292,0.0335,0.041,0.0497,0.0567,0.067,0.0743,0.0837,0.0815,0.0863,0.0861,0.0827,0.0814,0.0829,0.0707,0.0705,0.0668,0.0713,0.0633,0.056,0.0687,0.0687,0.0687,0,0.0184,0.0215,0.0257,0.0342,0.0366,0.0408,0.0566,0.0632,0.0778,0.0834,0.0935,0.0968,0.1034,0.0966,0.0935,0.093,0.085,0.0796,0.0791,0.0758,0.0682,0.0538,0.0556,0.0688,0.0688,0.0688,0.0688,0,0.0204,0.0257,0.0302,0.0318,0.0406,0.0479,0.0552,0.0698,0.0801,0.0937,0.1003,0.1077,0.1099,0.1029,0.0932,0.0917,0.0838,0.0803,0.0713,0.0708,0.0621,0.0608,0.0767,0.0767,0.0767,0.0767,0.0768,0,0.0221,0.0265,0.0323,0.0347,0.0474,0.0521,0.0681,0.0777,0.0914,0.1046,0.1086,0.1167,0.11,0.1057,0.0955,0.0838,0.0853,0.0745,0.0702,0.0635,0.0625,0.0725,0.0721,0.0764,0.0765,0.0766,0.0766,0,0.0234,0.0251,0.0323,0.0424,0.0474,0.0573,0.0742,0.087,0.0966,0.1123,0.1158,0.1215,0.1149,0.1068,0.0942,0.0865,0.0757,0.0705,0.0627,0.0578,0.0629,0.0629,0.0614,0.0613,0.0612,0.0611,0.061,0,0.0247,0.0271,0.0378,0.0455,0.0507,0.0649,0.0769,0.0896,0.1019,0.1156,0.1231,0.1214,0.1224,0.1039,0.0872,0.0701,0.0713,0.054,0.0533,0.0662,0.062,0.0622,0.0623,0.0414,0.0412,0.041,0.0408,0,0.029,0.0312,0.0378,0.0517,0.0641,0.0785,0.0942,0.1031,0.1178,0.127,0.1353,0.1351,0.1178,0.0978,0.0754,0.063,0.0569,0.0499,0.0645,0.0482,0.0472,0.0432,0.0439,0.0392,0.0393,0.0395,0.0396,0.0396,0.0336,0.0396,0.0475,0.0621,0.0755,0.091,0.1019,0.1149,0.1293,0.14,0.139,0.1343,0.1146,0.0817,0.0619,0.0418,0.0465,0.0381,0.0387,0.0395,0.0403,0.0393,0.0298,0.0299,0.0299,0.03,0.0301,0,0.0413,0.0481,0.0596,0.0756,0.0894,0.0955,0.1142,0.1219,0.1343,0.1394,0.1411,0.1165,0.0941,0.0731,0.0405,0.0252,0.0226,0.0194,0.0187,0.0203,0.0217,0.0218,0.0062,0.0062,0.0061,0.0061,0,0,0.0467,0.0575,0.0628,0.0853,0.0963,0.1127,0.122,0.1299,0.1353,0.1351,0.1297,0.1218,0.0975,0.07,0.0447,0.026,0.0279,0.0213,0.041,0.0443,0.0461,0.0314,0.0331,0,0,0,0,0]}],[{"header":{"parameterUnit":"m.s-1","parameterCategory":2,"la1":30.2991,"la2":30.254,"lo1":-89.0895,"lo2":-89.0444,"dy":0.0017,"dx":0.0017,"nx":28,"ny":28,"refTime":"2025-06-09T03:00:00:Z","depth":"4","parameterNumber":2,"parameterNumberName":"U-component_of_CURRENTS"},"data":[0,0,0,0,0,0,0,0,0,0,0,0,0,0,0,0,0,0,0,0,0,0,0,0,0,0,0,0,0,0,0,0,0,0,0,0,0,0,0,0,0,0,0,0,0,0,0,0,0,0,0,0,0,0,0,0,0,0,0.0471,0.0471,0,0.0447,0.0447,0.0446,0.0493,0.0495,0.0496,0.0497,0.0577,0.0578,0.0579,0,0,0,0,0,0,0,0,0,0,0,0,0,0.0515,0.0515,0.0471,0.0471,0.047,0.0447,0.0447,0.0446,0.0493,0.0495,0.0496,0.0498,0.0577,0.0578,0.0579,0,0,0,0,0,0,0,0,0,0,0,0,0,0.0496,0.0515,0.0471,0.0489,0.049,0.0447,0.0447,0.0446,0.0493,0.0495,0.0497,0.0499,0.0577,0.0578,0.0579,0.0547,0,0,0.0583,0.0584,0,0,0,0,0,0,0,0,0.0497,0.0495,0.0487,0.0488,0.0489,0.0473,0.0491,0.0484,0.0492,0.0494,0.0497,0.05,0.0549,0.0553,0.0545,0.055,0.0554,0.0583,0.0584,0.0585,0.0585,0,0,0,0,0,0,0,0.0499,0.0496,0.0464,0.0486,0.0487,0.0483,0.0484,0.049,0.0514,0.0494,0.0497,0.049,0.0551,0.0544,0.0548,0.0555,0.0583,0.0584,0.0585,0.0586,0.0714,0.0717,0,0,0,0,0,0,0.0497,0.0497,0.0464,0.0463,0.0496,0.0481,0.0481,0.0478,0.0512,0.0518,0.0488,0.0492,0.0541,0.0546,0.0551,0.0636,0.0585,0.0586,0.0587,0.0712,0.0715,0.0718,0,0,0,0,0,0,0.0498,0.0494,0.0465,0.0478,0.0473,0.0478,0.0474,0.0476,0.0503,0.0506,0.0515,0.0517,0.0543,0.0549,0.0591,0.0636,0.0586,0.0588,0.0709,0.0713,0.0716,0.0729,0,0,0,0,0,0,0.05,0.0495,0.0502,0.0477,0.0473,0.0448,0.0472,0.0474,0.0493,0.0499,0.0532,0.054,0.0545,0.0589,0.0592,0.0636,0.0589,0.0705,0.071,0.0715,0.0725,0.0733,0.074,0,0,0,0,0,0.0501,0.0498,0.0503,0.0499,0.0479,0.0447,0.0444,0.0456,0.0493,0.0492,0.0535,0.0541,0.0624,0.059,0.0594,0.064,0.0703,0.0709,0.0715,0.0722,0.0732,0.0739,0,0,0,0,0,0,0.0529,0.0501,0.0506,0.0499,0.0478,0.0454,0.0468,0.0471,0.05,0.0537,0.0548,0.0557,0.0608,0.0629,0.0591,0.0699,0.0675,0.0682,0.068,0.0689,0.0696,0.0744,0.059,0,0,0,0,0,0.0533,0.0519,0.0496,0.0488,0.0496,0.049,0.0487,0.0492,0.0506,0.0523,0.0529,0.058,0.0627,0.0662,0.068,0.0729,0.0741,0.0774,0.0781,0.0786,0.0833,0.0883,0.0898,0.0737,0.0737,0.0737,0,0,0.0543,0.0522,0.0519,0.0492,0.0497,0.0455,0.0496,0.0506,0.0472,0.0527,0.0515,0.0583,0.0641,0.0693,0.0723,0.0724,0.0828,0.0794,0.0798,0.0843,0.089,0.0906,0.0919,0.0741,0.0741,0.074,0,0,0.0515,0.0547,0.0515,0.0473,0.0464,0.0472,0.0479,0.0467,0.0487,0.0473,0.0539,0.0657,0.0648,0.075,0.0793,0.0861,0.0846,0.0864,0.0956,0.1001,0.1015,0.1027,0.1005,0.1015,0.0888,0.0889,0.0889,0,0.0533,0.0457,0.0501,0.0426,0.0406,0.0475,0.043,0.0434,0.0424,0.0483,0.0469,0.0648,0.0685,0.0858,0.0891,0.0879,0.0873,0.0906,0.1008,0.1021,0.1033,0.1009,0.102,0.089,0.089,0.089,0.0889,0,0.0433,0.0369,0.0356,0.029,0.0301,0.0267,0.0292,0.0335,0.0388,0.0405,0.0568,0.0671,0.0821,0.0847,0.0882,0.1043,0.0994,0.0984,0.0976,0.1049,0.1019,0.103,0.0892,0.0891,0.0891,0.0891,0,0,0.0438,0.0315,0.0284,0.0263,0.0222,0.0247,0.0255,0.0321,0.0424,0.0454,0.0594,0.0735,0.0894,0.0965,0.1084,0.1154,0.1209,0.1121,0.1122,0.1081,0.1256,0.1122,0.112,0.1201,0.1205,0.1208,0.1177,0,0.0335,0.0171,0.0154,0.0077,0.0036,0.0126,0.0154,0.0248,0.0359,0.0501,0.0703,0.0863,0.0903,0.1068,0.1142,0.1207,0.125,0.1216,0.1211,0.1211,0.1069,0.1135,0.1219,0.1185,0.1188,0.119,0.1191,0,0.017,0.0118,-0.0001,0.0032,0.0048,0.0064,0.0277,0.0305,0.0522,0.0614,0.0851,0.0996,0.1216,0.1212,0.1351,0.1319,0.1307,0.1315,0.1312,0.1209,0.1102,0.1116,0.1211,0.1209,0.1208,0.1207,0.1205,0,0.0094,-0.0003,-0.0062,-0.0098,-0.0037,0.0064,0.0176,0.0379,0.0473,0.0757,0.0879,0.113,0.1296,0.134,0.1383,0.1372,0.1448,0.1419,0.1281,0.1267,0.1385,0.1374,0.1488,0.1488,0.1489,0.1489,0.1489,0,-0.0083,-0.0143,-0.0065,-0.0117,0.0014,0.009,0.0289,0.0424,0.0639,0.0794,0.0996,0.1174,0.1334,0.1411,0.1403,0.1368,0.1455,0.1322,0.1277,0.1382,0.1371,0.1388,0.1377,0.1487,0.1488,0.1488,0.1488,0,-0.0236,-0.0268,-0.0279,-0.0142,-0.0057,0.007,0.0314,0.0444,0.0647,0.0868,0.0963,0.1193,0.1296,0.1374,0.1444,0.1384,0.1367,0.132,0.1399,0.1353,0.1141,0.1131,0.1177,0.1173,0.1169,0.1166,0.1163,0,-0.035,-0.0398,-0.0267,-0.0188,-0.0108,0.0096,0.0224,0.0433,0.0539,0.0874,0.094,0.1155,0.1296,0.1264,0.133,0.1283,0.1264,0.1227,0.1241,0.1171,0.1122,0.1118,0.1114,0.1157,0.1156,0.1155,0.1155,0,-0.0478,-0.0441,-0.0409,-0.0254,-0.0102,0.0051,0.0244,0.0315,0.0574,0.0735,0.094,0.1074,0.1169,0.1213,0.118,0.115,0.125,0.1189,0.1196,0.1209,0.1147,0.1102,0.1102,0.1142,0.1144,0.1145,0.1145,0,-0.0526,-0.049,-0.0432,-0.0261,-0.0109,0.0034,0.0128,0.0287,0.042,0.0751,0.0809,0.1029,0.1182,0.1141,0.1112,0.1072,0.1057,0.1015,0.1032,0.1046,0.1018,0.0921,0.0833,0,0,0,0,0,-0.0527,-0.0487,-0.041,-0.0222,-0.0098,0.0021,0.0159,0.0234,0.0469,0.0572,0.0698,0.0803,0.0903,0.0964,0.089,0.0996,0.1013,0.0902,0.0961,0.107,0.1085,0.1064,0,0,0,0,0,0,-0.0516,-0.0492,-0.0436,-0.0228,-0.0075,0.0074,0.0171,0.0293,0.0327,0.0558,0.0572,0.0748,0.078,0.0957,0.0894,0.0901,0.0909,0.0986,0.0983,0.1062,0.1075,0.1087,0.107,0,0,0,0,0]},{"header":{"parameterUnit":"m.s-1","parameterCategory":2,"la1":30.2991,"la2":30.254,"lo1":-89.0895,"lo2":-89.0444,"dy":0.0017,"dx":0.0017,"nx":28,"ny":28,"refTime":"2025-06-09T03:00:00:Z","depth":"4","parameterNumber":3,"parameterNumberName":"V-component_of_CURRENTS"},"data":[0,0,0,0,0,0,0,0,0,0,0,0,0,0,0,0,0,0,0,0,0,0,0,0,0,0,0,0,0,0,0,0,0,0,0,0,0,0,0,0,0,0,0,0,0,0,0,0,0,0,0,0,0,0,0,0,0,0,-0.0154,-0.0154,0,-0.0148,-0.0147,-0.0147,-0.0161,-0.0162,-0.0162,-0.0163,-0.0148,-0.0148,-0.0147,0,0,0,0,0,0,0,0,0,0,0,0,0,-0.0168,-0.0167,-0.0154,-0.0154,-0.0154,-0.0148,-0.0147,-0.0147,-0.0161,-0.0162,-0.0162,-0.0163,-0.0149,-0.0148,-0.0147,0,0,0,0,0,0,0,0,0,0,0,0,0,-0.0161,-0.0167,-0.0154,-0.016,-0.0161,-0.0148,-0.0147,-0.0147,-0.0161,-0.0162,-0.0162,-0.0163,-0.0149,-0.0148,-0.0147,-0.0124,0,0,-0.0143,-0.0142,0,0,0,0,0,0,0,0,-0.0161,-0.016,-0.0159,-0.016,-0.016,-0.0156,-0.0147,-0.0139,-0.0161,-0.016,-0.0163,-0.0163,-0.015,-0.0149,-0.0145,-0.0123,-0.0123,-0.0143,-0.0142,-0.0141,-0.0141,0,0,0,0,0,0,0,-0.0162,-0.0161,-0.0151,-0.0159,-0.016,-0.016,-0.016,-0.0146,-0.015,-0.016,-0.0161,-0.0161,-0.015,-0.0146,-0.0145,-0.0122,-0.0143,-0.0142,-0.0141,-0.014,-0.0046,-0.0044,0,0,0,0,0,0,-0.0163,-0.0161,-0.0151,-0.0151,-0.0163,-0.0159,-0.0159,-0.0156,-0.0151,-0.0151,-0.0161,-0.0162,-0.0148,-0.0146,-0.0145,-0.0103,-0.0141,-0.014,-0.0139,-0.0048,-0.0046,-0.0044,0,0,0,0,0,0,-0.0164,-0.0162,-0.0151,-0.0156,-0.0155,-0.0159,-0.0155,-0.0156,-0.0156,-0.0151,-0.0151,-0.0161,-0.0149,-0.0146,-0.0126,-0.0104,-0.014,-0.0138,-0.005,-0.0047,-0.0045,-0.003,0,0,0,0,0,0,-0.0164,-0.0162,-0.0161,-0.0156,-0.0155,-0.014,-0.0154,-0.0155,-0.0155,-0.0157,-0.0151,-0.0151,-0.0149,-0.0128,-0.0125,-0.0102,-0.0137,-0.0052,-0.0049,-0.0046,-0.0032,-0.0027,-0.0022,0,0,0,0,0,-0.0164,-0.0151,-0.016,-0.0159,-0.0152,-0.0139,-0.0138,-0.0143,-0.0155,-0.0147,-0.0143,-0.0151,-0.0105,-0.0126,-0.0123,-0.0099,-0.0054,-0.005,-0.0046,-0.0035,-0.0028,-0.0022,0,0,0,0,0,0,-0.0154,-0.0151,-0.0161,-0.0148,-0.0146,-0.0142,-0.0133,-0.0142,-0.0133,-0.0134,-0.0137,-0.0134,-0.0104,-0.0099,-0.0123,-0.0058,-0.0077,-0.0072,-0.0069,-0.0063,-0.0058,-0.0021,-0.0136,0,0,0,0,0,-0.0152,-0.0144,-0.0143,-0.0135,-0.013,-0.0134,-0.0131,-0.0134,-0.0127,-0.0125,-0.0126,-0.0111,-0.0083,-0.0074,-0.0053,-0.0025,-0.0033,-0.0003,0.0002,0.0006,0.0042,0.0032,0.0039,-0.0031,-0.0031,-0.0031,0,0,-0.0148,-0.0145,-0.0143,-0.0133,-0.0131,-0.0106,-0.0133,-0.0122,-0.0108,-0.0123,-0.0105,-0.0096,-0.007,-0.0035,-0.0021,-0.0032,0.0018,0.0011,0.0014,0.0049,0.0037,0.0043,0.0049,-0.0028,-0.0029,-0.0029,0,0,-0.0116,-0.013,-0.0103,-0.009,-0.0082,-0.0089,-0.0086,-0.0084,-0.0091,-0.0076,-0.0071,-0.004,-0.0027,0.0012,0.0031,0.0083,0.0045,0.0078,0.013,0.0119,0.0124,0.0129,0.0099,0.0101,0.0078,0.0079,0.0079,0,-0.011,-0.0067,-0.0094,-0.0052,-0.0032,-0.0078,-0.0033,-0.0047,-0.0044,-0.0046,-0.0067,-0.0004,0.0008,0.0084,0.0105,0.0096,0.0067,0.0096,0.0123,0.0128,0.0132,0.0101,0.0102,0.008,0.008,0.0079,0.0079,0,-0.0045,-0.0005,0.0015,0.0047,0.0051,0.0085,0.0063,0.0053,0.0024,0.0007,0.0046,0.0073,0.012,0.0123,0.013,0.0186,0.0145,0.0124,0.0099,0.014,0.0104,0.0106,0.0081,0.0081,0.0081,0.008,0,0,-0.0032,0.0049,0.0059,0.0104,0.0117,0.0128,0.0133,0.0132,0.0133,0.012,0.0156,0.0206,0.0205,0.0235,0.0251,0.0251,0.0245,0.0203,0.0202,0.016,0.0193,0.0147,0.0144,0.0204,0.0205,0.0206,0.0144,0,0.0039,0.0153,0.0158,0.0241,0.03,0.0262,0.0274,0.025,0.0208,0.0215,0.0229,0.0269,0.0249,0.029,0.0287,0.0267,0.0255,0.0264,0.0175,0.0173,0.0116,0.0148,0.021,0.0145,0.0145,0.0145,0.0145,0,0.0113,0.0184,0.0305,0.0366,0.0382,0.041,0.0406,0.0412,0.038,0.0351,0.0371,0.036,0.0411,0.0376,0.0351,0.0344,0.0288,0.0249,0.0244,0.021,0.0133,0.0106,0.0148,0.0148,0.0148,0.0147,0.0147,0,0.0172,0.0275,0.038,0.0413,0.0471,0.0498,0.0502,0.0464,0.0457,0.0458,0.0452,0.0469,0.0507,0.0444,0.0365,0.0351,0.0298,0.0261,0.0167,0.0161,0.021,0.0206,0.0242,0.0242,0.0242,0.0242,0.0242,0,0.0258,0.0332,0.0425,0.0498,0.0572,0.058,0.0634,0.0604,0.0595,0.0597,0.0558,0.0574,0.0521,0.0471,0.0384,0.028,0.0306,0.0198,0.0155,0.0214,0.0212,0.0208,0.0205,0.0239,0.024,0.024,0.0241,0,0.0295,0.0381,0.0503,0.0602,0.0626,0.0675,0.0711,0.0724,0.0704,0.0717,0.0729,0.0659,0.0582,0.0491,0.0392,0.0313,0.0214,0.0167,0.0235,0.0192,0.0075,0.0074,0.0062,0.006,0.0059,0.0057,0.0056,0,0.0323,0.041,0.0569,0.0636,0.0687,0.0763,0.08,0.0789,0.0754,0.0757,0.0732,0.07,0.0644,0.0461,0.0363,0.0188,0.016,0.0112,0.0114,0.0104,0.0063,0.0064,0.0065,0.0054,0.0053,0.0053,0.0053,0,0.0353,0.043,0.0519,0.0679,0.0759,0.0815,0.0834,0.0821,0.08,0.0813,0.0735,0.0674,0.0581,0.0442,0.0311,0.0187,0.015,0.0095,0.0098,0.0099,0.0094,0.0055,0.0058,0.0047,0.0048,0.0049,0.0049,0,0.0342,0.0394,0.0541,0.065,0.0787,0.0819,0.084,0.0798,0.0781,0.0733,0.073,0.0662,0.0633,0.044,0.0317,0.0193,0.0156,0.0122,0.0122,0.0127,0.0162,0.0167,0.0125,0,0,0,0,0,0.0319,0.0367,0.0481,0.0619,0.0776,0.0827,0.0827,0.0816,0.0815,0.0752,0.0721,0.063,0.0485,0.0414,0.0276,0.0271,0.0127,0.0106,0.0086,0.0017,0.0024,0.005,0,0,0,0,0,0,0.0295,0.0404,0.0447,0.0588,0.0686,0.0794,0.0808,0.0792,0.0696,0.0707,0.06,0.0611,0.0426,0.0576,0.0287,0.0254,0.0221,0.0043,0.004,0.0014,0.002,0.0025,0.0054,0,0,0,0,0]}]]